FW7786 Weather Reports


time (UTC)temp
C
wind
direction
speed
KPH
gust
KPH
rain 1hr
cm
rain 24hr
cm
rain mn
cm
humidity
%
barometer
mb
20260510153056 25 0 0.0 0.0 0.00 0.00 0.00 45 1013.3
20260510151557 25 0 0.0 0.0 0.00 0.00 0.00 46 1013.3
20260510150055 24 0 0.0 0.0 0.00 0.00 0.00 46 1013.3
20260510144602 24 0 0.0 0.0 0.00 0.00 0.00 48 1013.3
20260510143053 23 0 0.0 0.0 0.00 0.00 0.00 49 1013.2
20260510141551 23 0 0.0 0.0 0.00 0.00 0.00 51 1013.1
20260510140054 22 0 0.0 1.6 0.00 0.00 0.00 54 1013.1
20260510134557 22 0 0.0 0.0 0.00 0.00 0.00 50 1013.0
20260510133053 21 0 0.0 1.6 0.00 0.00 0.00 59 1013.0
20260510131550 20 0 0.0 0.0 0.00 0.00 0.00 61 1012.9
20260510130052 20 0 0.0 0.0 0.00 0.00 0.00 68 1013.0
20260510124609 18 0 0.0 0.0 0.00 0.00 0.00 72 1013.1
20260510123053 17 0 0.0 4.8 0.00 0.00 0.00 76 1013.0
20260510121548 16 0 0.0 0.0 0.00 0.00 0.00 84 1012.7
20260510120054 13 0 0.0 1.6 0.00 0.00 0.00 93 1012.6
20260510114551 12 0 0.0 1.6 0.00 0.00 0.00 94 1012.4
20260510113051 12 0 0.0 0.0 0.00 0.00 0.00 94 1012.2
20260510111551 11 0 0.0 0.0 0.00 0.00 0.00 93 1012.1
20260510110054 11 0 0.0 1.6 0.00 0.00 0.00 93 1012.0
20260510104557 11 0 0.0 0.0 0.00 0.00 0.00 93 1011.8
20260510103052 11 0 0.0 0.0 0.00 0.00 0.00 92 1011.6
20260510101551 11 0 0.0 0.0 0.00 0.00 0.00 92 1011.5
20260510100054 11 0 0.0 0.0 0.00 0.00 0.00 92 1011.4
20260510094555 11 0 0.0 0.0 0.00 0.00 0.00 92 1011.3
20260510093055 12 0 0.0 0.0 0.00 0.00 0.00 91 1011.2
20260510091551 12 0 0.0 0.0 0.00 0.00 0.00 91 1011.0
20260510090051 12 0 0.0 0.0 0.00 0.00 0.00 91 1010.8
20260510084552 12 0 0.0 0.0 0.00 0.00 0.00 90 1010.8
20260510083100 13 0 0.0 0.0 0.00 0.00 0.00 90 1010.8
20260510081602 13 0 0.0 0.0 0.00 0.00 0.00 90 1010.8
20260510080050 13 0 0.0 3.2 0.00 0.00 0.00 90 1010.7
20260510074553 13 0 0.0 0.0 0.00 0.00 0.00 90 1010.6
20260510073100 13 0 0.0 0.0 0.00 0.00 0.00 90 1010.3
20260510071557 13 0 0.0 0.0 0.00 0.00 0.00 88 1010.3
20260510070055 14 0 0.0 0.0 0.00 0.00 0.00 88 1010.0
20260510064557 14 0 0.0 0.0 0.00 0.00 0.00 87 1010.0
20260510063056 15 0 0.0 0.0 0.00 0.00 0.00 87 1010.0
20260510061550 15 0 0.0 0.0 0.00 0.00 0.00 87 1010.0
20260510060049 15 0 0.0 0.0 0.00 0.00 0.00 85 1010.1
20260510054557 15 0 0.0 0.0 0.00 0.00 0.00 85 1010.0
20260510053053 15 0 0.0 0.0 0.00 0.00 0.00 84 1010.0
20260510051554 15 0 0.0 0.0 0.00 0.00 0.00 84 1010.0
20260510050056 15 0 0.0 3.2 0.00 0.00 0.00 84 1010.0
20260510044549 15 0 0.0 0.0 0.00 0.00 0.00 81 1010.1
20260510043051 16 0 0.0 0.0 0.00 0.00 0.00 78 1010.0
20260510041552 16 0 0.0 0.0 0.00 0.00 0.00 77 1009.9
20260510040053 17 0 0.0 0.0 0.00 0.00 0.00 75 1009.9
20260510034551 17 0 0.0 1.6 0.00 0.00 0.00 75 1010.0
20260510033110 17 0 0.0 0.0 0.00 0.00 0.00 76 1009.8
20260510031551 16 0 0.0 0.0 0.00 0.00 0.00 76 1009.6
20260510030056 16 0 0.0 0.0 0.00 0.00 0.00 75 1009.4
20260510024557 16 0 0.0 0.0 0.00 0.00 0.00 74 1009.2
20260510023055 16 0 0.0 0.0 0.00 0.00 0.00 74 1009.2
20260510021550 16 0 0.0 0.0 0.00 0.00 0.00 73 1009.2
20260510020056 16 0 0.0 0.0 0.00 0.00 0.00 73 1009.0
20260510014554 16 0 0.0 0.0 0.00 0.00 0.00 73 1008.9
20260510013049 17 0 0.0 0.0 0.00 0.00 0.00 72 1008.6
20260510011552 17 0 0.0 0.0 0.00 0.00 0.00 71 1008.3
20260510010054 17 0 0.0 0.0 0.00 0.00 0.00 70 1008.2
20260510004553 18 0 0.0 0.0 0.00 0.00 0.00 68 1008.1
20260510003101 18 0 0.0 0.0 0.00 0.00 0.00 66 1007.9
20260510001550 19 0 0.0 0.0 0.00 0.00 0.00 63 1007.8
20260510000055 20 0 0.0 0.0 0.00 0.00 0.00 60 1007.8
20260509234604 21 0 0.0 0.0 0.00 0.00 0.00 56 1007.6
20260509233053 22 0 0.0 9.7 0.00 0.00 0.00 53 1007.5
20260509231601 22 219 0.0 4.8 0.00 0.00 0.00 52 1007.5
20260509230103 22 0 0.0 0.0 0.00 0.00 0.00 53 1007.4
20260509224601 22 0 0.0 0.0 0.00 0.00 0.00 51 1007.3
20260509223102 23 0 0.0 0.0 0.00 0.00 0.00 50 1007.4
20260509221555 23 0 0.0 4.8 0.00 0.00 0.00 49 1007.4
20260509220054 23 0 0.0 1.6 0.00 0.00 0.00 48 1007.4
20260509214553 23 0 0.0 4.8 0.00 0.00 0.00 48 1007.4
20260509213058 24 0 0.0 1.6 0.00 0.00 0.00 47 1007.5
20260509211553 24 0 0.0 12.9 0.00 0.00 0.00 44 1007.2
20260509210100 24 0 0.0 11.3 0.00 0.00 0.00 47 1007.3
20260509204601 24 0 0.0 3.2 0.00 0.00 0.00 47 1007.2
20260509203100 23 0 0.0 3.2 0.00 0.00 0.00 50 1007.3
20260509201553 23 0 0.0 0.0 0.00 0.00 0.00 50 1007.2
20260509200053 23 0 0.0 8.0 0.00 0.00 0.00 50 1007.5
20260509194551 23 0 0.0 3.2 0.00 0.00 0.00 52 1007.8
20260509193054 22 234 0.0 1.6 0.00 0.00 0.00 56 1007.9
20260509191557 23 0 0.0 0.0 0.00 0.00 0.00 54 1008.4
20260509190055 21 0 0.0 4.8 0.00 0.00 0.00 62 1008.5
20260509184550 20 0 0.0 0.0 0.00 0.00 0.00 63 1008.8
20260509183052 21 0 0.0 1.6 0.00 0.00 0.00 62 1008.9
20260509181608 20 0 0.0 0.0 0.00 0.00 0.00 61 1009.0
20260509180112 21 0 0.0 12.9 0.00 0.00 0.00 58 1009.0
20260509174555 21 0 0.0 16.1 0.00 0.00 0.00 58 1009.1
20260509173106 21 0 0.0 9.7 0.00 0.00 0.00 56 1009.2
20260509171554 21 0 0.0 1.6 0.00 0.00 0.00 57 1009.4
20260509170055 21 0 0.0 11.3 0.00 0.00 0.00 59 1009.7
20260509163059 20 0 0.0 1.6 0.00 0.00 0.00 61 1009.8
20260509161602 20 0 0.0 4.8 0.00 0.00 0.00 61 1009.9
20260509160059 20 0 0.0 14.5 0.00 0.00 0.00 60 1009.9
20260509154614 20 0 0.0 0.0 0.00 0.00 0.00 60 1010.1